DW8163 Weather Reports


time (UTC)temp
C
wind
direction
speed
KPH
gust
KPH
rain 1hr
cm
rain 24hr
cm
rain mn
cm
humidity
%
barometer
mb
20260506231504 11 223 1.6 11.3 0.05 1.04 1.04 94 1008.1
20260506230003 11 252 9.7 20.9 0.25 1.04 1.04 94 1008.2
20260506224502 11 247 4.8 19.3 0.48 1.04 1.04 94 1008.0
20260506223103 11 179 4.8 24.1 0.69 1.04 1.04 94 1008.0
20260506221611 11 172 4.8 12.9 0.71 0.99 0.99 94 1008.0
20260506220056 11 209 3.2 11.3 0.58 0.79 0.79 93 1008.2
20260506214556 11 215 4.8 11.3 0.36 0.56 0.56 93 1008.3
20260506213110 11 177 3.2 17.7 0.18 0.36 0.36 93 1008.7
20260506211550 11 217 4.8 22.5 0.15 0.28 0.28 92 1008.7
20260506210049 11 225 3.2 14.5 0.13 0.20 0.20 93 1008.8
20260506204547 12 207 3.2 12.9 0.15 0.20 0.20 92 1008.8
20260506203045 11 225 4.8 12.9 0.13 0.18 0.18 92 1008.9
20260506201543 12 211 3.2 11.3 0.10 0.13 0.13 91 1009.0
20260506200040 12 198 4.8 20.9 0.08 0.08 0.08 91 1009.1
20260506194538 12 216 3.2 11.3 0.05 0.05 0.05 91 1009.4
20260506193038 12 135 4.8 11.3 0.05 0.05 0.05 90 1009.5
20260506191534 13 186 3.2 11.3 0.03 0.03 0.03 89 1009.5
20260506190032 13 245 3.2 14.5 0.00 0.00 0.00 87 1009.8
20260506184544 13 268 8.0 19.3 0.00 0.00 0.00 84 1010.0
20260506183038 13 237 4.8 14.5 0.00 0.00 0.00 84 1010.1
20260506181539 13 230 6.4 20.9 0.00 0.00 0.00 83 1010.3
20260506180032 14 236 8.0 24.1 0.00 0.00 0.00 83 1010.4
20260506174526 13 217 6.4 22.5 0.00 0.00 0.00 83 1010.6
20260506173024 14 167 12.9 24.1 0.00 0.00 0.00 82 1010.9
20260506171523 14 319 9.7 22.5 0.00 0.00 0.00 81 1011.2
20260506170023 15 218 9.7 25.7 0.00 0.00 0.00 79 1011.1
20260506164525 16 119 8.0 33.8 0.00 0.00 0.00 79 1011.1
20260506163020 15 226 6.4 12.9 0.00 0.00 0.00 79 1011.5
20260506161518 15 158 8.0 33.8 0.00 0.00 0.00 80 1011.7
20260506160018 15 236 6.4 14.5 0.00 0.00 0.00 80 1012.0
20260506154517 15 235 6.4 20.9 0.00 0.00 0.00 80 1012.2
20260506153021 16 219 8.0 22.5 0.00 0.00 0.00 78 1012.2
20260506151516 17 232 4.8 24.1 0.00 0.00 0.00 77 1012.1
20260506150013 16 184 8.0 14.5 0.00 0.00 0.00 78 1012.2
20260506144516 16 212 4.8 20.9 0.00 0.00 0.00 78 1012.3
20260506143014 16 204 6.4 29.0 0.00 0.00 0.00 80 1012.1
20260506141510 15 242 9.7 30.6 0.00 0.00 0.00 79 1012.2
20260506140014 16 163 4.8 22.5 0.00 0.00 0.00 80 1012.0
20260506134507 16 215 4.8 24.1 0.00 0.00 0.00 80 1011.7
20260506133005 15 162 9.7 24.1 0.00 0.00 0.00 80 1012.3
20260506131503 15 191 4.8 27.4 0.00 0.00 0.00 81 1012.4
20260506130003 15 203 9.7 30.6 0.00 0.00 0.00 82 1012.3
20260506124608 15 131 4.8 20.9 0.00 0.00 0.00 83 1012.3
20260506123057 14 229 6.4 17.7 0.00 0.00 0.00 84 1012.3
20260506121556 13 223 1.6 19.3 0.00 0.00 0.00 86 1012.5
20260506120054 13 209 6.4 24.1 0.00 0.00 0.00 86 1012.5
20260506114555 13 225 4.8 12.9 0.00 0.00 0.00 87 1012.5
20260506113051 13 190 6.4 14.5 0.00 0.00 0.00 88 1012.6
20260506111551 12 220 3.2 11.3 0.00 0.00 0.00 89 1012.8
20260506110050 12 230 4.8 16.1 0.00 0.00 0.00 89 1012.7
20260506104555 12 225 6.4 17.7 0.00 0.00 0.00 89 1012.6
20260506103054 12 236 6.4 14.5 0.00 0.00 0.00 89 1012.4
20260506101547 12 267 1.6 12.9 0.00 0.00 0.00 89 1012.4
20260506100045 12 251 4.8 12.9 0.00 0.00 0.00 89 1012.4
20260506094542 12 209 4.8 19.3 0.00 0.00 0.00 89 1012.3
20260506093042 12 233 9.7 20.9 0.00 0.00 0.00 89 1012.4
20260506091550 12 273 4.8 16.1 0.00 0.00 0.00 89 1012.5
20260506090037 13 247 6.4 16.1 0.00 0.00 0.00 89 1012.6
20260506084544 13 221 6.4 27.4 0.00 0.00 0.00 89 1012.7
20260506083036 13 246 6.4 19.3 0.00 0.00 0.00 89 1012.8
20260506081536 13 207 9.7 24.1 0.00 0.00 0.00 89 1012.8
20260506073030 13 214 9.7 24.1 0.00 0.00 0.00 88 1012.8
20260506071529 13 234 6.4 25.7 0.00 0.00 0.00 88 1012.7
20260506061524 13 187 9.7 22.5 0.00 0.00 0.00 87 1012.7
20260506044513 12 227 3.2 12.9 0.00 0.00 0.00 87 1013.3
20260506043014 12 248 4.8 11.3 0.00 0.00 0.00 87 1013.2
20260506041510 12 210 6.4 17.7 0.00 0.00 0.00 86 1013.4
20260506040008 12 210 9.7 25.7 0.00 0.00 0.00 86 1013.3
20260506034518 13 267 6.4 16.1 0.00 0.00 0.00 86 1013.4
20260506033007 13 242 4.8 16.1 0.00 0.00 0.00 85 1013.3
20260506031507 13 255 6.4 24.1 0.00 0.00 0.00 85 1013.3
20260506030019 13 182 8.0 22.5 0.00 0.00 0.00 84 1013.2
20260506024510 13 248 9.7 27.4 0.00 0.00 0.00 83 1013.0
20260506023010 13 234 9.7 29.0 0.00 0.00 0.00 82 1013.0
20260506021503 13 239 8.0 37.0 0.00 0.00 0.00 81 1012.9
20260506020002 13 229 8.0 24.1 0.00 0.00 0.00 81 1012.9
20260506014501 13 226 9.7 27.4 0.00 0.00 0.00 81 1012.8
20260506013110 13 194 6.4 24.1 0.00 0.00 0.00 80 1012.7
20260506011609 13 209 6.4 24.1 0.00 0.00 0.00 80 1012.5
20260506010059 13 243 8.0 19.3 0.00 0.00 0.00 80 1012.5
20260506004558 13 262 12.9 35.4 0.00 0.00 0.00 80 1012.5
20260506003058 13 218 4.8 32.2 0.00 0.00 0.00 80 1012.1
20260506001557 13 240 9.7 27.4 0.00 0.00 0.00 81 1011.7
20260506000058 13 227 8.0 29.0 0.00 0.00 0.00 81 1011.2
20260505234558 13 244 8.0 24.1 0.00 0.00 0.00 80 1010.9
20260505233056 13 202 8.0 20.9 0.00 0.00 0.00 79 1011.4